Tweed New Haven Airport
KHVN : now visible

Airfield :











YOU CAN JOIN US ON...

 
LOGIN :

Register | Disclaimer

   EN    FR    IT 

 









Legend :    VFR   Marginal VFR   IFR   Intensive IFR   Very Intensive IFR
Visi :
Ceiling :
>= 8 km
>= 3000ft
5 to 8 km
1000 to 3000 ft
1500m to 5 km
500 to 1000 ft
800 to 1500m
200 to 500 ft
< 800m
< 200 ft
Symbols :   Thunderstorms  Fog  Heavy snow  Heavy precipitations  Wind > 20 kt






- Airport Elevation : 12 ft
- IATA code : HVN


KHVN - Tweed New Haven

CURRENT METAR :
  • 041153Z 02012G20KT 10SM OVC026 12/07 A3004 RMK AO2 PK WND 02027/1056 SLP171 70002 T01170072 10122 20111 55001

EXPIRED METARs :
  • 041053Z 03013G23KT 10SM OVC025 12/07 A3003 RMK AO2 SLP170 T01220067
  • 040953Z 02015G21KT 10SM OVC027 12/07 A3003 RMK AO2 SLP170 T01170067

TAF N/A
KZBW FIR / North America



MET'MAP, your aeronautical weather chart ! - Copyright ORBIFLY December 2007 - Disclaimer

ORBIFLY MET'MAP TEAM :

Programming & Development : Alexandra Zaïnal
Original concept : Baudouin d'Aumeries
Technical & hardware support : Manuel Goepfert
Assistance : Marc-Olivier Méhu




SOURCES & CREDITS :

   NOAA       Earth
Advisory